Location: ?nandapuram
(16.5396°N, 81.1430°E)
Time: 08:59:56
(UTC+00:00)

Cosmos 1844 - Pass Details

Date: 14 April 2026
Orbit: 820 x 867 km, 70.9° (Epoch: 12 May)

Event Time Altitude Azimuth Distance (km) Brightness Sun altitude
Rises 13:27:59 0° 349° (N) 3,442 7.2 -9.6°
Reaches altitude 10° 13:30:30 10° 354° (N) 2,505 6.4 -10.2°
Maximum altitude 13:36:10 58° 72° (ENE) 1,002 3.8 -11.5°
Drops below altitude 10° 13:41:48 10° 151° (SSE) 2,494 5.8 -12.8°
Enters shadow 13:43:19 - 154° (SSE) 3,055 6.2 -13.2°
